User: anonymous   Login
Location: Unspecified
(0.0000°N, 0.0000°E)
Time: 21:57:32
(UTC+00:00)
Language:

Transit 2A Rocket - Orbit

View from above orbital plane
View from above orbital plane
View from above satellite
View from above satellite

Ground track
Ground track

The orbit data is extracted from the following two-line orbital elements,

1    47U 60007C   17081.52734220 +.00000008 +00000-0 +27022-4 0  9991
2    47 066.6650 077.5604 0220408 088.5059 274.1280 14.41902136964141
Epoch (UTC): 22 March 2017 12:39:22
Eccentricity: 0.0220408
inclination: 66.6650°
perigee height: 595 km
apogee height: 909 km
right ascension of ascending node: 77.5604°
argument of perigee: 88.5059°
revolutions per day: 14.41902136
mean anomaly at epoch: 274.1280°
orbit number at epoch: 96414

The dashed part of the orbit path shows where the satellite is in the earth's shadow,  

DLR